Nairobi Wilson, Kenya

11:55 AM EAT on July 26, 2017 (GMT +0300)
Nairobi Wilson

Weather History for HKNW - December, 2013

Change the Weather History Date:

Friday, December 20, 2013

  Actual Average Record
Temperature  
Mean Temperature 65 °F -  
Max Temperature 71 °F 75 °F 84 °F (2005)
Min Temperature 59 °F 61 °F 53 °F (2012)
Growing Degree Days 15 (Base 50)    
Moisture  
Dew Point 58 °F    
Average Humidity 79    
Maximum Humidity 94    
Minimum Humidity 57    
Precipitation  
Precipitation 0.00 in - - ()
Sea Level Pressure  
Sea Level Pressure 30.10 in    
Wind  
Wind Speed 4 mph ()    
Max Wind Speed 16 mph    
Max Gust Speed -    
Visibility 6.1 miles    
Events Rain    
Averages and records for this station are not official NWS values.
T = Trace of Precipitation, MM = Missing Value Source: Averaged Metar Reports

Daily Weather History Graph

Daily Weather History Graph

Search for Another Location

Airport or City:

Trip Planner

Search our weather history database for the weather conditions in past years. The results will help you decide how hot, cold, wet, or windy it might be!

Date:

Astronomy

Dec. 20, 2013 Rise Set
Actual Time 6:24 AM EAT 6:36 PM EAT
Civil Twilight 6:01 AM EAT 6:58 PM EAT
Nautical Twilight 5:35 AM EAT 7:25 PM EAT
Astronomical Twilight 5:09 AM EAT 7:51 PM EAT
Moon 9:02 PM EAT (12/20) 8:36 AM EAT (12/20)
Length of Visible Light 12h 57m
Length of Day
12h 12m
Waning Gibbous, 92% of the Moon is Illuminated
Dec 20
Waning Gibbous
Dec 25
Last Quarter
Jan 1
New
Jan 8
First Quarter
Jan 16
Full

Hourly Weather History & Observations

Time (EAT) Temp. Dew Point Humidity Pressure Visibility Wind Dir Wind Speed Gust Speed Precip Events Conditions
12:00 AM 64.4 °F 59.0 °F 83% 30.09 in 6.2 mi Calm Calm - N/A   Partly Cloudy
1:00 AM 62.6 °F 60.8 °F 94% 30.06 in 6.2 mi Calm Calm - N/A   Partly Cloudy
2:00 AM 62.6 °F 60.8 °F 94% 30.06 in 6.2 mi Calm Calm - N/A   Scattered Clouds
3:00 AM 62.6 °F 60.8 °F 94% 30.06 in 6.2 mi Calm Calm - N/A   Scattered Clouds
4:00 AM 60.8 °F 59.0 °F 94% 30.06 in 6.2 mi Calm Calm - N/A   Scattered Clouds
5:00 AM 59.0 °F 57.2 °F 94% 30.09 in 6.2 mi Calm Calm - N/A   Scattered Clouds
6:00 AM 59.0 °F 57.2 °F 94% 30.09 in 6.2 mi Calm Calm - N/A   Scattered Clouds
7:00 AM 59.0 °F 57.2 °F 94% 30.12 in 6.2 mi Calm Calm - N/A   Partly Cloudy
8:00 AM 60.8 °F 55.4 °F 82% 30.12 in 6.2 mi Calm Calm - N/A   Partly Cloudy
9:00 AM 68.0 °F 57.2 °F 68% 30.15 in 6.2 mi ENE 9.2 mph - N/A   Mostly Cloudy
10:00 AM 69.8 °F 57.2 °F 64% 30.15 in 6.2 mi East 13.8 mph - N/A   Mostly Cloudy
11:00 AM 71.6 °F 59.0 °F 64% 30.15 in 6.2 mi East 16.1 mph - N/A   Mostly Cloudy
12:00 PM 71.6 °F 57.2 °F 60% 30.12 in 6.2 mi ENE 9.2 mph - N/A   Mostly Cloudy
1:00 PM 71.6 °F 55.4 °F 57% 30.09 in 6.2 mi ENE 16.1 mph - N/A   Mostly Cloudy
2:00 PM 64.4 °F 59.0 °F 83% 30.09 in 5.0 mi East 11.5 mph - N/A Rain Light Rain
3:00 PM 68.0 °F 55.4 °F 64% 30.09 in 6.2 mi East 12.7 mph - N/A   Overcast
4:00 PM 68.0 °F 55.4 °F 64% 30.06 in 6.2 mi ESE 16.1 mph - N/A   Overcast
5:00 PM 66.2 °F 59.0 °F 78% 30.09 in 6.2 mi ENE 4.6 mph - N/A Rain Light Rain
6:00 PM 66.2 °F 59.0 °F 78% 30.09 in 6.2 mi East 4.6 mph - N/A   Mostly Cloudy